This demonstration page uses our WeatherBlox Daily Observations layout. Learn more.

Left ArrowRight Arrow

Hourly Observations for August 18, 2015

Temp ( °F °C ) Dew Point ( °F °C ) Humidity (%) Winds ( mph kmh ) Pressure ( in mb ) Visibility ( mi km ) Precip ( " mm )
12:35 am 00:35 Cloudy 63 17 59 15 88 88 ENE 9 15 29.85 1011 7 11 0.00 0.00
12:55 am 00:55 Cloudy 63 17 59 15 88 88 ENE 10 17 29.83 1010 5 8 0.00 0.00
1:15 am 01:15 Cloudy 63 17 59 15 88 88 NE 12 19 29.83 1010 3 5 0.00 0.00
1:35 am 01:35 Cloudy 63 17 59 15 88 88 ENE 12 19 29.83 1010 2 3 0.00 0.00
1:55 am 01:55 Cloudy 63 17 59 15 88 88 E 10 17 29.83 1010 2 2 0.00 0.00
2:15 am 02:15 Cloudy 63 17 61 16 94 94 E 9 15 29.83 1010 1 2 0.00 0.00
2:35 am 02:35 Cloudy 63 17 61 16 94 94 E 9 15 29.80 1009 1 2 0.00 0.00
2:55 am 02:55 Cloudy 63 17 61 16 94 94 E 8 13 29.80 1009 1 2 0.00 0.00
3:15 am 03:15 Cloudy 63 17 61 16 94 94 E 8 13 29.80 1009 1 1 0.00 0.00
3:35 am 03:35 Cloudy 63 17 61 16 94 94 ENE 7 11 29.80 1009 1 1 0.00 0.00
3:55 am 03:55 Cloudy 63 17 61 16 94 94 E 6 9 29.80 1009 0 0 0.00 0.00
4:15 am 04:15 Cloudy 63 17 61 16 94 94 E 6 9 29.77 1008 0 0 0.00 0.00
4:35 am 04:35 Cloudy 63 17 61 16 94 94 E 3 6 29.77 1008 0 0 0.00 0.00
4:55 am 04:55 Cloudy 63 17 61 16 94 94 NNE 3 6 29.77 1008 0 0 0.00 0.00
5:15 am 05:15 Cloudy 63 17 61 16 94 94 Calm 29.80 1009 0 0 0.00 0.00
5:35 am 05:35 Cloudy 64 18 61 16 88 88 NW 6 9 29.74 1007 0 0 0.00 0.00
5:55 am 05:55 Cloudy 64 18 61 16 88 88 NW 9 15 29.74 1007 0 0 0.00 0.00
6:15 am 06:15 Cloudy 64 18 61 16 88 88 NW 14 22 29.77 1008 1 1 0.00 0.00
6:35 am 06:35 Cloudy 63 17 61 16 94 94 NNW 15 24 29.80 1009 2 2 0.00 0.00
6:55 am 06:55 Cloudy 59 15 55 13 88 88 N 12 19 29.77 1008 10 16 0.00 0.00
7:15 am 07:15 Cloudy 59 15 55 13 88 88 NNE 6 9 29.77 1008 10 16 0.00 0.00
7:35 am 07:35 Cloudy 59 15 55 13 88 88 Calm 29.77 1008 10 16 0.00 0.00
7:55 am 07:55 Partly Cloudy 59 15 55 13 88 88 Calm 29.77 1008 10 16 0.00 0.00
8:15 am 08:15 Mostly Cloudy 61 16 55 13 83 83 NW 3 6 29.77 1008 10 16 0.00 0.00
8:35 am 08:35 Cloudy 61 16 55 13 83 83 NW 7 11 29.77 1008 10 16 0.00 0.00
8:55 am 08:55 Cloudy 61 16 55 13 83 83 WNW 8 13 29.80 1009 10 16 0.00 0.00
9:15 am 09:15 Cloudy 61 16 55 13 83 83 W 6 9 29.80 1009 10 16 0.00 0.00
9:35 am 09:35 Cloudy 63 17 55 13 77 77 WNW 9 15 29.80 1009 10 16 0.00 0.00
9:55 am 09:55 Cloudy 63 17 55 13 77 77 NW 8 13 29.80 1009 10 16 0.00 0.00
10:15 am 10:15 Cloudy 63 17 55 13 77 77 NW 15 24 29.80 1009 10 16 0.00 0.00
10:35 am 10:35 Cloudy 63 17 55 13 77 77 NW 13 20 29.80 1009 10 16 0.00 0.00
10:55 am 10:55 Cloudy 63 17 55 13 77 77 NW 12 19 29.80 1009 10 16 0.00 0.00
11:15 am 11:15 Cloudy 64 18 55 13 73 73 NNW 14 22 29.77 1008 10 16 0.00 0.00
11:35 am 11:35 Cloudy 66 19 55 13 68 68 NNW 15 24 29.77 1008 10 16 0.00 0.00
11:55 am 11:55 Cloudy 64 18 54 12 68 68 NW 14 22 29.77 1008 10 16 0.00 0.00
12:15 pm 12:15 Cloudy 66 19 55 13 68 68 NW 16 26 29.77 1008 10 16 0.00 0.00
12:35 pm 12:35 Cloudy 68 20 55 13 64 64 NNW 16 26 29.77 1008 10 16 0.00 0.00
12:55 pm 12:55 Cloudy 68 20 55 13 64 64 NW 17 28 29.77 1008 10 16 0.00 0.00
1:15 pm 13:15 Cloudy 68 20 54 12 60 60 NNW 16 26 29.77 1008 10 16 0.00 0.00
1:35 pm 13:35 Cloudy 66 19 54 12 64 64 NNW 16 26 29.77 1008 10 16 0.00 0.00
1:55 pm 13:55 Cloudy 68 20 54 12 60 60 NNW 14 22 29.77 1008 10 16 0.00 0.00
2:15 pm 14:15 Mostly Cloudy 70 21 54 12 57 57 N 15 24 29.74 1007 10 16 0.00 0.00
2:35 pm 14:35 Mostly Cloudy 72 22 55 13 57 57 N 16 26 29.71 1006 10 16 0.00 0.00
2:55 pm 14:55 Mostly Cloudy 70 21 54 12 57 57 NNW 16 26 29.74 1007 10 16 0.00 0.00
3:15 pm 15:15 Mostly Cloudy 72 22 55 13 57 57 N 17 28 29.71 1006 10 16 0.00 0.00
3:35 pm 15:35 Mostly Sunny 72 22 54 12 53 53 NNW 16 26 29.71 1006 10 16 0.00 0.00
3:55 pm 15:55 Mostly Cloudy 70 21 54 12 57 57 NNW 16 26 29.74 1007 10 16 0.00 0.00
4:15 pm 16:15 Mostly Cloudy 72 22 54 12 53 53 N 18 30 29.71 1006 10 16 0.00 0.00
4:35 pm 16:35 Mostly Cloudy 72 22 54 12 53 53 NNW 20 31 29.74 1007 10 16 0.00 0.00
4:55 pm 16:55 Cloudy 68 20 52 11 56 56 NNW 21 33 29.77 1008 10 16 0.00 0.00
5:15 pm 17:15 Cloudy 68 20 52 11 56 56 NNW 16 26 29.77 1008 10 16 0.00 0.00
5:35 pm 17:35 Mostly Cloudy 68 20 52 11 56 56 NNW 20 31 29.77 1008 10 16 0.00 0.00
5:55 pm 17:55 Mostly Cloudy 66 19 52 11 60 60 NNW 15 24 29.77 1008 10 16 0.00 0.00
6:15 pm 18:15 Cloudy 66 19 52 11 60 60 NNW 17 28 29.77 1008 10 16 0.00 0.00
6:35 pm 18:35 Cloudy 66 19 52 11 60 60 NNW 17 28 29.80 1009 10 16 0.00 0.00
6:55 pm 18:55 Mostly Cloudy 64 18 50 10 60 60 NNW 17 28 29.83 1010 10 16 0.00 0.00
7:15 pm 19:15 Mostly Cloudy 64 18 50 10 60 60 NNW 22 35 29.83 1010 10 16 0.00 0.00
7:35 pm 19:35 Mostly Sunny 63 17 48 9 59 59 NNW 18 30 29.83 1010 10 16 0.00 0.00
7:55 pm 19:55 Mostly Sunny 61 16 48 9 63 63 NNW 17 28 29.83 1010 10 16 0.00 0.00
8:15 pm 20:15 Sunny 61 16 46 8 59 59 NNW 21 33 29.83 1010 10 16 0.00 0.00
8:35 pm 20:35 Clear 59 15 48 9 68 68 NNW 10 17 29.83 1010 10 16 0.00 0.00
8:55 pm 20:55 Clear 57 14 48 9 72 72 NNW 13 20 29.88 1012 10 16 0.00 0.00
9:15 pm 21:15 Clear 57 14 46 8 67 67 NNW 12 19 29.88 1012 10 16 0.00 0.00
9:35 pm 21:35 Clear 57 14 46 8 67 67 NNW 8 13 29.88 1012 10 16 0.00 0.00
9:55 pm 21:55 Clear 57 14 46 8 67 67 NNW 10 17 29.88 1012 10 16 0.00 0.00
10:15 pm 22:15 Clear 55 13 48 9 77 77 NNW 10 17 29.88 1012 10 16 0.00 0.00
10:35 pm 22:35 Clear 55 13 46 8 72 72 NNW 10 17 29.91 1013 10 16 0.00 0.00
10:55 pm 22:55 Clear 55 13 46 8 72 72 NW 9 15 29.91 1013 10 16 0.00 0.00
11:15 pm 23:15 Clear 55 13 46 8 72 72 NW 7 11 29.91 1013 10 16 0.00 0.00
11:35 pm 23:35 Clear 54 12 46 8 77 77 NW 9 15 29.91 1013 10 16 0.00 0.00
11:55 pm 23:55 Clear 54 12 46 8 77 77 NW 9 15 29.91 1013 10 16 0.00 0.00

Powered by AerisWeather